Theta_e
297 292 293 297 303 303 308 311 317 323 330 327 327 341 339 344 349 352 351 353 358 362 362 361 360 359 359 358 358 358 358 359
295 292 298 300 305 305 307 311 313 326 322 330 340 343 344 349 351 351 350 353 360 361 361 361 360 359 359 359 359 359 358 357
291 294 298 304 307 307 306 308 312 326 322 325 344 347 348 349 351 350 351 356 357 361 361 361 360 359 359 359 359 359 358 357
291 294 301 304 305 306 306 309 315 323 322 331 346 344 345 349 349 352 354 357 358 361 361 360 360 359 358 358 358 359 358 358
292 296 299 302 306 306 306 312 318 328 323 331 340 344 348 349 352 354 355 357 357 357 359 360 359 359 358 357 357 358 358 358
292 295 297 302 303 306 308 314 329 336 324 324 338 347 348 349 350 352 352 352 352 355 355 354 355 359 359 357 357 357 357 357
294 296 298 299 300 308 314 325 330 333 333 337 345 345 344 343 344 346 349 350 351 352 352 354 354 356 358 358 358 357 357 357
299 300 299 299 302 304 311 319 327 332 340 343 343 342 339 339 339 341 341 345 348 350 348 350 355 354 353 354 354 353 353 352
301 303 303 300 302 306 306 307 317 328 333 338 339 338 337 338 339 339 342 345 346 347 348 350 352 351 352 353 353 351 351 350
302 304 303 300 305 305 305 307 321 332 335 335 336 336 337 338 339 340 342 344 345 346 346 346 349 349 349 350 350 349 349 348
303 302 303 304 301 305 306 311 319 332 332 332 332 333 337 339 341 341 340 342 342 343 344 344 346 348 348 348 348 348 347 347
300 301 302 302 302 306 308 312 313 329 329 329 331 333 334 337 338 339 340 339 340 340 341 342 341 343 344 346 346 347 346 346
298 299 299 303 300 303 310 311 310 311 314 320 324 330 333 335 336 338 339 341 339 339 340 338 338 340 341 341 343 343 344 343
298 299 300 301 295 304 310 309 308 310 311 315 316 323 329 333 335 337 337 338 339 342 338 335 333 337 343 341 340 340 340 341
293 298 300 298 294 302 310 309 308 308 310 311 311 311 316 333 335 337 336 338 338 340 338 334 337 338 338 344 340 340 341 342
291 294 297 298 299 305 308 309 309 309 310 309 309 311 321 333 337 337 337 336 335 335 337 332 334 338 343 347 348 344 342 343
291 296 296 297 299 304 306 305 305 306 307 309 309 310 330 334 336 336 336 334 334 333 332 332 332 333 340 345 347 347 348 347
291 297 297 297 298 304 306 305 305 306 306 307 308 310 325 330 331 332 333 332 332 332 331 331 330 331 334 339 344 346 347 347
289 296 299 296 294 299 304 306 306 306 306 307 307 310 317 323 326 328 329 329 329 328 327 328 328 330 336 341 340 337 337 337
292 290 286 296 284 293 300 303 305 305 303 305 307 310 315 318 319 321 323 325 327 328 330 331 336 334 334 330 328 328 328 328
Wind_Speed
5 3 6 4 4 1 6 8 5 3 2 4 3 4 7 7 13 12 9 6 10 14 15 16 17 17 16 15 14 14 14 13
5 6 7 5 5 2 4 6 4 2 1 5 2 3 7 15 16 15 9 7 12 12 13 16 17 16 15 15 14 13 13 12
3 5 7 2 3 4 5 4 3 4 3 4 7 10 14 17 15 14 11 8 7 11 12 13 16 16 14 13 12 11 12 12
5 4 5 5 3 2 2 5 6 6 6 4 4 9 10 15 14 11 13 10 8 10 11 11 13 13 14 13 12 11 11 10
4 6 2 4 2 4 4 2 3 2 5 2 6 9 13 14 14 11 10 10 8 6 10 11 10 10 11 11 10 10 10 9
4 6 5 2 5 3 3 0 2 2 6 5 6 12 14 13 13 12 8 7 7 6 6 6 5 9 10 9 9 8 8 8
6 6 4 1 2 2 2 4 5 3 2 8 14 13 14 13 9 9 9 8 7 9 8 8 6 6 8 10 9 8 7 7
5 4 2 2 1 2 3 3 6 11 12 13 13 11 14 12 11 9 11 9 9 9 7 7 8 7 6 6 4 5 5 6
4 4 1 3 3 3 5 1 5 13 16 11 11 11 13 8 8 7 9 8 11 10 9 7 6 5 4 3 5 4 6 6
4 3 4 4 5 2 1 1 6 8 16 10 9 7 12 10 10 11 11 9 9 9 11 8 4 4 6 7 7 6 6 6
3 3 4 3 3 2 2 3 5 13 9 11 11 8 5 5 5 10 13 11 11 9 9 9 9 6 6 8 7 8 6 7
1 0 2 2 2 2 4 1 7 11 11 10 12 12 6 6 7 8 6 9 9 8 9 7 7 7 6 5 7 6 4 5
4 3 4 6 2 5 5 5 7 6 4 8 9 9 13 10 8 9 6 6 9 10 6 4 5 5 4 2 1 2 2 4
5 9 4 5 2 6 5 9 7 6 1 3 3 9 7 9 8 7 6 10 6 5 5 3 3 2 1 2 1 4 4 4
1 9 4 4 4 8 7 6 8 8 6 6 7 6 7 8 11 12 9 9 7 6 5 5 4 2 2 4 4 4 4 2
8 6 3 4 4 4 6 7 8 7 7 7 7 11 2 7 7 6 6 4 1 3 5 5 2 1 1 2 2 1 3 4
4 2 5 6 5 5 7 2 4 7 5 6 7 6 3 4 3 5 6 7 6 5 3 2 1 2 2 2 2 2 4 6
1 5 4 5 6 7 8 6 8 8 8 8 5 6 3 4 4 4 3 4 2 1 4 1 2 2 0 0 1 2 4 4
5 4 3 6 4 4 5 4 7 7 6 5 9 9 6 5 4 3 5 3 3 3 3 2 4 1 1 1 4 5 6 5
8 6 5 4 5 5 6 8 6 7 8 8 9 5 5 6 4 5 1 2 3 5 5 5 4 5 7 5 5 3 3 4
Wind_Direction
105 126 187 180 231 241 299 289 271 319 81 118 103 74 144 124 111 94 93 106 134 136 136 128 120 119 119 120 121 120 120 119
105 207 259 183 160 311 296 304 229 181 271 97 53 134 135 117 114 108 100 106 133 136 136 129 126 123 122 123 125 126 127 126
142 215 270 202 279 281 327 271 272 128 302 14 44 62 115 116 115 119 111 115 116 128 128 131 130 128 127 127 127 131 135 139
198 214 254 299 245 271 285 316 305 106 104 15 36 79 95 101 105 118 123 119 117 121 120 126 129 132 132 134 135 139 141 148
205 190 239 242 147 160 264 251 131 335 81 124 68 92 96 101 103 101 108 121 108 115 125 119 122 125 130 136 139 149 149 155
228 178 205 237 331 228 231 125 12 357 142 183 128 105 99 92 105 115 114 105 110 102 99 101 111 130 138 144 146 160 161 166
188 155 205 47 67 246 54 79 55 36 82 128 130 123 104 107 96 115 123 126 136 147 147 144 138 153 140 152 164 169 169 182
201 195 138 50 212 296 100 123 89 85 92 124 137 135 130 141 145 146 154 152 159 158 157 155 157 155 154 164 169 175 176 183
249 225 16 49 359 318 104 120 201 161 145 145 142 144 119 134 150 168 158 160 167 163 168 172 162 164 152 155 184 190 189 186
240 53 21 70 305 17 80 55 95 144 140 127 124 131 139 152 160 161 169 172 181 174 163 170 162 176 173 181 188 194 202 183
240 44 349 79 318 199 50 15 93 135 124 124 130 139 138 143 156 168 179 182 185 179 180 174 168 185 194 195 191 201 188 188
200 78 6 64 313 42 236 21 72 150 154 159 159 163 149 166 164 178 173 182 171 192 203 185 194 177 205 218 195 199 191 200
199 205 225 155 153 230 190 152 122 115 151 157 169 177 188 183 181 178 195 180 201 181 215 189 208 198 208 233 212 216 185 152
207 146 243 113 214 241 203 146 142 126 165 294 209 187 193 196 194 199 181 196 185 178 175 104 50 24 2 62 116 197 201 200
130 177 133 152 210 215 193 207 151 153 187 214 257 278 223 201 197 199 207 199 182 170 155 119 103 80 168 161 200 229 205 189
179 186 95 136 205 135 192 179 175 158 175 201 238 253 247 202 186 184 194 244 162 148 152 133 113 38 116 196 219 194 222 202
158 170 122 180 195 185 204 167 198 166 190 216 245 281 133 189 195 182 198 196 182 183 192 105 28 105 137 118 196 220 228 198
56 189 149 137 215 249 165 194 191 203 196 204 223 273 256 187 201 245 268 247 215 299 42 94 152 167 123 3 235 250 25 17
139 142 60 115 309 248 262 199 177 202 207 193 201 207 239 220 238 283 272 341 14 20 5 340 286 323 337 92 47 35 25 4
128 106 194 156 252 245 242 258 226 201 200 208 205 194 193 176 188 214 292 76 68 63 48 32 32 82 67 70 80 41 35 19